Time,TemperatureF,DewpointF,PressureIn,WindDirection,WindDirectionDegrees,WindSpeedMPH,WindSpeedGustMPH,Humidity,HourlyPrecipIn,Conditions,Clouds,dailyrainin,SolarRadiationWatts/m^2,SoftwareType,DateUTC
2013-09-22 00:02:00,52.5,51.0,29.90,NE,34,6.0,7.0,96,0.00,,,0.20,0,weatherlink.com 1.10,2013-09-22 07:02:00,
2013-09-22 00:17:00,52.5,51.0,29.90,NNE,30,3.0,9.0,96,0.00,,,0.00,0,weatherlink.com 1.10,2013-09-22 07:17:00,
2013-09-22 00:32:00,52.2,51.0,29.90,NNE,30,4.0,8.0,95,0.00,,,0.00,0,weatherlink.com 1.10,2013-09-22 07:32:00,
2013-09-22 00:47:00,52.0,51.0,29.90,NNE,32,8.0,8.0,95,0.00,,,0.00,0,weatherlink.com 1.10,2013-09-22 07:47:00,
2013-09-22 01:02:00,51.9,51.0,29.90,NE,51,4.0,7.0,96,0.00,,,0.00,0,weatherlink.com 1.10,2013-09-22 08:02:00,
2013-09-22 01:17:00,52.0,51.0,29.91,NE,50,0.0,5.0,96,0.00,,,0.00,0,weatherlink.com 1.10,2013-09-22 08:17:00,
2013-09-22 01:32:00,52.0,51.0,29.92,NE,49,2.0,3.0,96,0.00,,,0.00,0,weatherlink.com 1.10,2013-09-22 08:32:00,
2013-09-22 01:47:00,51.8,51.0,29.91,NE,49,1.0,5.0,95,0.00,,,0.00,0,weatherlink.com 1.10,2013-09-22 08:47:00,
2013-09-22 02:03:00,51.5,50.0,29.92,NE,43,2.0,6.0,95,0.00,,,0.00,0,weatherlink.com 1.10,2013-09-22 09:03:00,
2013-09-22 02:18:00,51.1,50.0,29.92,NNE,28,4.0,7.0,95,0.00,,,0.00,0,weatherlink.com 1.10,2013-09-22 09:18:00,
2013-09-22 02:33:00,51.3,50.0,29.92,NE,43,5.0,10.0,96,0.00,,,0.00,0,weatherlink.com 1.10,2013-09-22 09:33:00,
2013-09-22 02:48:00,51.0,50.0,29.91,NE,44,6.0,10.0,95,0.00,,,0.00,0,weatherlink.com 1.10,2013-09-22 09:48:00,
2013-09-22 03:03:00,50.5,49.0,29.91,NE,35,5.0,9.0,95,0.00,,,0.00,0,weatherlink.com 1.10,2013-09-22 10:03:00,
2013-09-22 03:18:00,50.4,49.0,29.92,NE,52,1.0,4.0,96,0.00,,,0.00,0,weatherlink.com 1.10,2013-09-22 10:18:00,
2013-09-22 03:33:00,50.3,49.0,29.92,ENE,60,1.0,7.0,96,0.00,,,0.00,0,weatherlink.com 1.10,2013-09-22 10:33:00,
2013-09-22 03:48:00,50.4,49.0,29.91,ENE,76,0.0,3.0,96,0.00,,,0.00,0,weatherlink.com 1.10,2013-09-22 10:48:00,
2013-09-22 04:03:00,50.2,49.0,29.92,East,88,2.0,4.0,96,0.00,,,0.00,0,weatherlink.com 1.10,2013-09-22 11:03:00,
2013-09-22 04:18:00,50.1,49.0,29.92,ENE,74,1.0,2.0,96,0.00,,,0.00,0,weatherlink.com 1.10,2013-09-22 11:18:00,
2013-09-22 04:33:00,50.3,49.0,29.93,NNE,25,2.0,5.0,96,0.01,,,0.01,0,weatherlink.com 1.10,2013-09-22 11:33:00,
2013-09-22 04:48:00,50.2,49.0,29.93,NE,36,0.0,7.0,96,0.01,,,0.01,0,weatherlink.com 1.10,2013-09-22 11:48:00,
2013-09-22 05:03:00,50.1,49.0,29.93,NE,38,4.0,7.0,96,0.01,,,0.01,0,weatherlink.com 1.10,2013-09-22 12:03:00,
2013-09-22 05:18:00,50.1,49.0,29.93,NNE,22,8.0,10.0,96,0.01,,,0.01,0,weatherlink.com 1.10,2013-09-22 12:18:00,
2013-09-22 05:33:00,49.0,48.0,29.93,NNE,24,8.0,11.0,96,0.00,,,0.01,0,weatherlink.com 1.10,2013-09-22 12:33:00,
2013-09-22 05:48:00,48.8,48.0,29.93,NNE,31,9.0,11.0,96,0.00,,,0.01,0,weatherlink.com 1.10,2013-09-22 12:48:00,
2013-09-22 06:03:00,48.5,48.0,29.94,NNE,24,8.0,11.0,96,0.00,,,0.01,0,weatherlink.com 1.10,2013-09-22 13:03:00,
2013-09-22 06:18:00,48.5,48.0,29.94,NNE,22,6.0,10.0,96,0.00,,,0.01,0,weatherlink.com 1.10,2013-09-22 13:18:00,
2013-09-22 06:33:00,48.4,48.0,29.94,NNE,28,5.0,10.0,97,0.00,,,0.01,0,weatherlink.com 1.10,2013-09-22 13:33:00,
2013-09-22 06:48:00,48.6,48.0,29.94,NNE,29,8.0,10.0,97,0.00,,,0.01,0,weatherlink.com 1.10,2013-09-22 13:48:00,
2013-09-22 07:03:00,48.5,48.0,29.95,NNE,12,3.0,11.0,96,0.00,,,0.01,5,weatherlink.com 1.10,2013-09-22 14:03:00,
2013-09-22 07:18:00,48.6,48.0,29.95,NE,37,3.0,8.0,96,0.00,,,0.01,11,weatherlink.com 1.10,2013-09-22 14:18:00,
2013-09-22 07:33:00,48.5,48.0,29.96,NE,50,3.0,6.0,96,0.00,,,0.01,16,weatherlink.com 1.10,2013-09-22 14:33:00,
2013-09-22 07:48:00,48.9,48.0,29.96,NE,51,3.0,8.0,97,0.00,,,0.01,21,weatherlink.com 1.10,2013-09-22 14:48:00,
2013-09-22 08:03:00,49.5,49.0,29.96,NNE,28,3.0,9.0,97,0.00,,,0.01,141,weatherlink.com 1.10,2013-09-22 15:03:00,
2013-09-22 08:18:00,50.2,49.0,29.97,NNE,32,6.0,9.0,97,0.00,,,0.01,193,weatherlink.com 1.10,2013-09-22 15:18:00,
2013-09-22 08:33:00,51.3,51.0,29.97,NE,49,0.0,4.0,97,0.00,,,0.01,244,weatherlink.com 1.10,2013-09-22 15:33:00,
2013-09-22 08:48:00,53.0,52.0,29.97,NE,36,3.0,5.0,97,0.00,,,0.01,287,weatherlink.com 1.10,2013-09-22 15:48:00,
2013-09-22 09:03:00,54.5,54.0,29.98,NE,37,0.0,1.0,97,0.00,,,0.01,334,weatherlink.com 1.10,2013-09-22 16:03:00,
2013-09-22 09:19:00,55.1,54.0,29.98,NW,309,0.0,2.0,95,0.00,,,0.01,564,weatherlink.com 1.10,2013-09-22 16:19:00,
2013-09-22 09:34:00,55.8,54.0,29.99,NW,306,0.0,2.0,93,0.00,,,0.01,188,weatherlink.com 1.10,2013-09-22 16:34:00,
2013-09-22 09:49:00,57.5,56.0,29.98,SSW,212,0.0,3.0,93,0.00,,,0.01,494,weatherlink.com 1.10,2013-09-22 16:49:00,
2013-09-22 10:04:00,58.5,55.0,29.99,SW,216,2.0,5.0,87,0.00,,,0.01,540,weatherlink.com 1.10,2013-09-22 17:04:00,
2013-09-22 10:19:00,58.3,54.0,30.00,West,271,2.0,6.0,86,0.00,,,0.01,571,weatherlink.com 1.10,2013-09-22 17:19:00,
2013-09-22 10:34:00,59.2,55.0,29.99,WSW,244,0.0,4.0,85,0.00,,,0.01,664,weatherlink.com 1.10,2013-09-22 17:34:00,
2013-09-22 10:49:00,59.3,54.0,30.00,West,265,0.0,5.0,83,0.00,,,0.01,316,weatherlink.com 1.10,2013-09-22 17:49:00,
2013-09-22 11:04:00,59.4,55.0,30.00,SW,227,5.0,7.0,84,0.00,,,0.01,422,weatherlink.com 1.10,2013-09-22 18:04:00,
2013-09-22 11:19:00,59.7,55.0,30.00,SW,229,2.0,6.0,83,0.00,,,0.01,598,weatherlink.com 1.10,2013-09-22 18:19:00,
2013-09-22 11:34:00,59.5,55.0,30.00,South,173,0.0,7.0,84,0.00,,,0.01,740,weatherlink.com 1.10,2013-09-22 18:34:00,
2013-09-22 11:49:00,61.5,56.0,29.99,SSW,200,3.0,6.0,81,0.00,,,0.01,508,weatherlink.com 1.10,2013-09-22 18:49:00,
2013-09-22 12:04:00,63.0,56.0,29.99,SW,225,3.0,6.0,77,0.00,,,0.01,513,weatherlink.com 1.10,2013-09-22 19:04:00,
2013-09-22 12:19:00,61.5,55.0,29.99,WSW,254,1.0,10.0,79,0.00,,,0.01,830,weatherlink.com 1.10,2013-09-22 19:19:00,
2013-09-22 12:34:00,61.7,55.0,29.99,WSW,246,5.0,10.0,78,0.00,,,0.01,779,weatherlink.com 1.10,2013-09-22 19:34:00,
2013-09-22 12:49:00,62.1,55.0,29.99,NW,314,3.0,10.0,77,0.00,,,0.01,851,weatherlink.com 1.10,2013-09-22 19:49:00,
2013-09-22 13:04:00,61.7,55.0,29.99,WNW,298,0.0,8.0,78,0.00,,,0.01,626,weatherlink.com 1.10,2013-09-22 20:04:00,
2013-09-22 13:19:00,62.1,55.0,29.98,WNW,284,2.0,8.0,78,0.00,,,0.01,592,weatherlink.com 1.10,2013-09-22 20:19:00,
2013-09-22 13:34:00,61.0,54.0,29.99,West,274,6.0,12.0,79,0.00,,,0.01,492,weatherlink.com 1.10,2013-09-22 20:34:00,
2013-09-22 13:49:00,62.0,55.0,29.99,SW,229,4.0,9.0,78,0.00,,,0.01,768,weatherlink.com 1.10,2013-09-22 20:49:00,
2013-09-22 14:04:00,61.8,55.0,29.98,NW,307,5.0,10.0,79,0.00,,,0.01,751,weatherlink.com 1.10,2013-09-22 21:04:00,
2013-09-22 14:19:00,62.4,55.0,29.98,WNW,292,8.0,12.0,78,0.00,,,0.01,733,weatherlink.com 1.10,2013-09-22 21:19:00,
2013-09-22 14:34:00,63.0,56.0,29.98,West,263,3.0,10.0,77,0.00,,,0.01,742,weatherlink.com 1.10,2013-09-22 21:34:00,
2013-09-22 14:49:00,62.7,55.0,29.98,West,261,3.0,14.0,77,0.00,,,0.01,666,weatherlink.com 1.10,2013-09-22 21:49:00,
2013-09-22 15:04:00,60.9,55.0,29.98,West,277,4.0,14.0,80,0.00,,,0.01,367,weatherlink.com 1.10,2013-09-22 22:04:00,
2013-09-22 15:19:00,60.7,55.0,29.98,NW,305,6.0,11.0,81,0.00,,,0.01,352,weatherlink.com 1.10,2013-09-22 22:19:00,
2013-09-22 15:34:00,60.9,55.0,29.98,WNW,293,4.0,11.0,82,0.00,,,0.01,547,weatherlink.com 1.10,2013-09-22 22:34:00,
2013-09-22 15:49:00,62.2,56.0,29.98,West,259,10.0,12.0,80,0.00,,,0.01,733,weatherlink.com 1.10,2013-09-22 22:49:00,
2013-09-22 16:04:00,63.1,56.0,29.98,West,274,11.0,14.0,77,0.00,,,0.01,522,weatherlink.com 1.10,2013-09-22 23:04:00,
2013-09-22 16:19:00,61.5,55.0,29.98,WNW,295,8.0,11.0,80,0.00,,,0.01,480,weatherlink.com 1.10,2013-09-22 23:19:00,
2013-09-22 16:34:00,61.3,55.0,29.98,West,277,5.0,12.0,81,0.00,,,0.01,443,weatherlink.com 1.10,2013-09-22 23:34:00,
2013-09-22 16:49:00,61.2,55.0,29.98,WNW,289,9.0,15.0,80,0.00,,,0.01,207,weatherlink.com 1.10,2013-09-22 23:49:00,
2013-09-22 17:04:00,61.0,55.0,29.98,West,259,5.0,12.0,81,0.00,,,0.01,234,weatherlink.com 1.10,2013-09-23 00:04:00,
2013-09-22 17:19:00,63.2,56.0,29.98,NW,304,2.0,15.0,76,0.00,,,0.01,378,weatherlink.com 1.10,2013-09-23 00:19:00,
2013-09-22 17:34:00,62.8,55.0,29.98,WNW,284,4.0,13.0,76,0.00,,,0.01,262,weatherlink.com 1.10,2013-09-23 00:34:00,
2013-09-22 17:49:00,63.5,55.0,29.98,WNW,287,5.0,13.0,75,0.00,,,0.01,211,weatherlink.com 1.10,2013-09-23 00:49:00,
2013-09-22 18:04:00,62.2,55.0,29.99,West,273,5.0,13.0,77,0.00,,,0.01,149,weatherlink.com 1.10,2013-09-23 01:04:00,
2013-09-22 18:19:00,62.5,55.0,29.99,West,266,10.0,11.0,77,0.00,,,0.01,97,weatherlink.com 1.10,2013-09-23 01:19:00,
2013-09-22 18:34:00,62.2,55.0,29.99,West,279,3.0,9.0,78,0.00,,,0.01,47,weatherlink.com 1.10,2013-09-23 01:34:00,
2013-09-22 18:49:00,61.8,55.0,29.99,WSW,250,5.0,11.0,79,0.00,,,0.01,16,weatherlink.com 1.10,2013-09-23 01:49:00,
2013-09-22 19:04:00,61.9,56.0,29.99,West,281,3.0,8.0,80,0.00,,,0.01,7,weatherlink.com 1.10,2013-09-23 02:04:00,
2013-09-22 19:19:00,62.1,56.0,29.99,WNW,300,0.0,8.0,80,0.00,,,0.01,0,weatherlink.com 1.10,2013-09-23 02:19:00,
2013-09-22 19:34:00,61.9,55.0,30.00,WNW,292,0.0,2.0,79,0.00,,,0.01,0,weatherlink.com 1.10,2013-09-23 02:34:00,
2013-09-22 19:49:00,61.6,55.0,30.00,WNW,292,0.0,0.0,79,0.00,,,0.01,0,weatherlink.com 1.10,2013-09-23 02:49:00,
2013-09-22 20:05:00,60.7,55.0,30.00,WNW,292,0.0,0.0,80,0.00,,,0.01,0,weatherlink.com 1.10,2013-09-23 03:05:00,
2013-09-22 20:21:00,59.8,54.0,30.01,WNW,292,0.0,0.0,82,0.00,,,0.01,0,weatherlink.com 1.10,2013-09-23 03:21:00,
2013-09-22 20:35:00,58.9,54.0,30.01,NNE,23,0.0,3.0,84,0.00,,,0.01,0,weatherlink.com 1.10,2013-09-23 03:35:00,
2013-09-22 20:50:00,58.9,55.0,30.01,NNE,23,0.0,1.0,86,0.00,,,0.01,0,weatherlink.com 1.10,2013-09-23 03:50:00,
2013-09-22 21:05:00,59.2,55.0,30.01,NNE,23,0.0,1.0,86,0.00,,,0.01,0,weatherlink.com 1.10,2013-09-23 04:05:00,
2013-09-22 21:20:00,59.2,55.0,30.01,NNE,22,0.0,1.0,86,0.00,,,0.01,0,weatherlink.com 1.10,2013-09-23 04:20:00,
2013-09-22 21:35:00,59.3,56.0,30.01,NNE,22,0.0,1.0,87,0.00,,,0.01,0,weatherlink.com 1.10,2013-09-23 04:35:00,
2013-09-22 21:50:00,59.4,55.0,30.01,NNW,345,0.0,3.0,86,0.00,,,0.01,0,weatherlink.com 1.10,2013-09-23 04:50:00,
2013-09-22 22:05:00,60.2,55.0,30.01,NNE,17,1.0,7.0,83,0.00,,,0.01,0,weatherlink.com 1.10,2013-09-23 05:05:00,
2013-09-22 22:20:00,60.4,55.0,30.02,NNW,342,0.0,7.0,82,0.00,,,0.01,0,weatherlink.com 1.10,2013-09-23 05:20:00,
2013-09-22 22:35:00,59.7,54.0,30.02,NNE,30,2.0,4.0,82,0.00,,,0.01,0,weatherlink.com 1.10,2013-09-23 05:35:00,
2013-09-22 22:50:00,59.0,54.0,30.02,NNE,27,3.0,5.0,83,0.00,,,0.01,0,weatherlink.com 1.10,2013-09-23 05:50:00,
2013-09-22 23:05:00,58.8,54.0,30.02,NE,34,0.0,6.0,83,0.00,,,0.01,0,weatherlink.com 1.10,2013-09-23 06:05:00,
2013-09-22 23:20:00,58.1,53.0,30.02,NE,48,0.0,2.0,84,0.00,,,0.01,0,weatherlink.com 1.10,2013-09-23 06:20:00,
2013-09-22 23:35:00,57.6,54.0,30.02,NE,47,2.0,3.0,86,0.00,,,0.01,0,weatherlink.com 1.10,2013-09-23 06:35:00,
2013-09-22 23:50:00,57.6,54.0,30.02,NNE,29,0.0,6.0,86,0.00,,,0.01,0,weatherlink.com 1.10,2013-09-23 06:50:00,